Regional Weather Roundup
Issued by NWS Mt. Holly, NJ

Current Version | Previous Version | Text Only | Print | Product List | Glossary On
Versions: 1 2 3 4 5 6 7 8 9 10 11 12 13 14 15 16 17 18 19 20 21 22 23 24 25 26 27 28 29 30 31 32 33 34 35 36 37 38 39 40 41 42 43 44 45 46 47 48 49 50
000
ASUS41 KPHI 121412
RWRPHI

REGIONAL WEATHER ROUNDUP
NATIONAL WEATHER SERVICE MOUNT HOLLY NJ
1000 AM EDT MON APR 12 2021

NOTE:  "FAIR" INDICATES FEW OR NO CLOUDS BELOW 12,000 FEET WITH NO
SIGNIFICANT WEATHER AND/OR OBSTRUCTIONS TO VISIBILITY.

 * = STATION DOES NOT REPORT PRECIPITATION (E.G. RAIN, SNOW, ETC.)
        OR FOG.

NJZ015>026-121500-
SOUTHERN NEW JERSEY

CITY           SKY/WX    TMP DP  RH WIND       PRES   REMARKS
POMONA         CLOUDY    46  45  96 NE9G21    29.72R
WILDWOOD*      CLOUDY    48  47  96 NE9       29.72R
MILLVILLE      CLOUDY    47  44  90 NE15G24   29.72R
WRIGHTSTOWN    LGT RAIN  45  45 100 NE14      29.75R
MOUNT HOLLY    CLOUDY    47  43  86 E8        29.76R
TRENTON        CLOUDY    45  43  93 NE10      29.76R FOG

$$
NJZ001>014-121500-
NORTHERN NEW JERSEY

CITY           SKY/WX    TMP DP  RH WIND       PRES   REMARKS
SUSSEX         CLOUDY    47  41  80 NE8       29.78R
ANDOVER*         N/A     46  40  79 VRB3      29.78R
MORRISTOWN     LGT RAIN  48  46  93 E8        29.80R
NEWARK         LGT RAIN  47  40  76 NE13G20   29.79R
TETERBORO      CLOUDY    47  37  68 E14G20    29.78R
CALDWELL       LGT RAIN  47  40  76 E7        29.80R
SOMERVILLE     RAIN      45  41  86 NE5       29.77R FOG
ALLAIRE*       LGT RAIN  44  41  89 NE15G24   29.77R
TOMS RIVER*    CLOUDY    45  42  89 NE12G20   29.76R

$$
PAZ043-044-047-054-055-060>062-066>071-121500-
EASTERN PENNSYLVANIA

CITY           SKY/WX    TMP DP  RH WIND       PRES   REMARKS
PHILADELPHIA   CLOUDY    48  45  89 NE15G28   29.74R
NORTH PHILA    CLOUDY    46  45  96 NE15      29.77R FOG
BLUE BELL*     CLOUDY    46  45  94 NE8       29.75R
DOYLESTOWN     CLOUDY    47  43  86 VRB3      29.76R
QUAKERTOWN*    CLOUDY    46  45  93 NE7G14    29.76R
PERKASIE*      CLOUDY    45  45 100 NE14G20   29.76S FOG
POTTSTOWN      CLOUDY    45  42  89 NE14      29.76R
LANCASTER      CLOUDY    50  45  83 NE10      29.74R
COATESVILLE    CLOUDY    46  46 100 NE6G14    29.74R
WEST CHESTER   CLOUDY    46  43  87 NE10G21   29.74R
READING        CLOUDY    50  44  80 E7        29.73R
ALLENTOWN      CLOUDY    47  39  74 E14       29.76S
QN CITY/ALNTWN CLOUDY    46  43  87 NE16      29.77S
MOUNT POCONO   CLOUDY    39  34  82 E10G18    29.74R WCI  32
HAZLETON       CLOUDY    43  43 100 E6        29.76R FOG
LEHIGHTON      CLOUDY    45  43  93 E6        29.77R FOG
WILKES BARRE   CLOUDY    46  36  68 VRB6      29.76R

$$
DEZALL-MDZ008-012-015-019-020-121500-
DELAWARE AND EASTERN MARYLAND

CITY           SKY/WX    TMP DP  RH WIND       PRES   REMARKS
WILMINGTON     CLOUDY    50  45  83 NE13G23   29.74R
DOVER          CLOUDY    49  49 100 NE13      29.70R
CHESWOLD       CLOUDY    48  48 100 NE13      29.73R FOG
GEORGETOWN     CLOUDY    52  49  89 NE14      29.70S FOG
EASTON         CLOUDY    54  52  94 N7        29.74R
ABERDEEN       CLOUDY    50  47  91 E10       29.73R
PATUXENT       CLOUDY    57  53  86 N12       29.69R
OCEAN CITY     CLOUDY    52  50  93 NE9       29.70R FOG
WALLOPS ISLAND CLOUDY    56  53  90 N13       29.67S
CAMBRIDGE      CLOUDY    54  52  94 NE10      29.70R
SALISBURY      CLOUDY    54  48  82 NE9       29.69R

$$
PAZ001-021-NYZ056-072-MDZ011-DCZ001-121500-
OTHER NEARBY LOCATIONS

CITY           SKY/WX    TMP DP  RH WIND       PRES   REMARKS
HARRISBURG     CLOUDY    51  47  86 SE10      29.73R
STATE COLLEGE  CLOUDY    52  46  82 S5        29.68R
WILLIAMSPORT   CLOUDY    51  47  86 E8        29.70R
BINGHAMTON     LGT RAIN  41  36  82 SE13      29.74R
NEW YORK CITY  CLOUDY    47  38  71 N15G24    29.80R
BALTIMORE      CLOUDY    53  48  83 NE8       29.71R
WASHINGTON DC  CLOUDY    58  51  78 N5        29.71R

$$



USA.gov is the U.S. government's official web portal to all federal, state and local government web resources and services.